Regional Weather Roundup
Issued by NWS Upton, NY

Home | Current Version | Previous Version | Text Only | Print | Product List | Glossary On
Versions: 1 2 3 4 5 6 7 8 9 10 11 12 13 14 15 16 17 18 19 20 21 22 23 24 25 26 27 28 29 30 31 32 33 34 35 36 37 38 39 40 41 42 43 44 45 46 47 48 49 50
000
ASUS41 KOKX 190405
RWROKX

REGIONAL WEATHER ROUNDUP
NATIONAL WEATHER SERVICE NEW YORK NY
1200 AM EDT FRI SEP 19 2014

NOTE: "FAIR" INDICATES FEW OR NO CLOUDS BELOW 12,000 FEET WITH NO
SIGNIFICANT WEATHER AND/OR OBSTRUCTIONS TO VISIBILITY.

NYZ071-072-176-178-NJZ106-104-190500-
NEW YORK CITY METRO AREA


CITY           SKY/WX    TMP DP  RH WIND       PRES   REMARKS
CENTRAL PARK   CLEAR     64  48  56 NE8       30.14R
LAGUARDIA APRT PTCLDY    64  51  62 NE9       30.11R
KENNEDY INTL   PTCLDY    65  51  60 NE16      30.11R
NEWARK/LIBERTY PTCLDY    63  49  60 N13       30.11R
BRNX BOT. GARD   N/A     61  48  63 E2        30.11F
TETERBORO      CLEAR     62  49  62 NE5       30.10R
$$

NYZ177-179-078>081-190500-
LONG ISLAND NEW YORK

CITY           SKY/WX    TMP DP  RH WIND       PRES   REMARKS
FARMINGDALE    CLEAR     61  52  72 N10       30.11R
ISLIP          PTCLDY    59  52  77 N3        30.09R
SHIRLEY        PTCLDY    57  52  83 CALM      30.10R
WESTHAMPTON    CLEAR     61  53  75 N9        30.11R
MONTAUK POINT    N/A     65  53  65 N10G17    30.10R
$$

NYZ052-065-067-190500-
HUDSON VALLEY

CITY           SKY/WX    TMP DP  RH WIND       PRES   REMARKS
WHITE PLAINS   CLEAR     60  49  66 N13       30.11R
NEWBURGH       MOCLDY    57  50  77 E14       30.15R
MONTGOMERY     MOCLDY    55  49  80 N8        30.15R
POUGHKEEPSIE   MOCLDY    57  49  74 N7        30.14R
ALBANY         MOCLDY    51  41  68 N6        30.19R
$$

NJZ001-105-106-008-010-013-015-019>022-104-190500-
NEW JERSEY

CITY           SKY/WX    TMP DP  RH WIND       PRES   REMARKS
NEWARK/LIBERTY PTCLDY    63  49  60 N13       30.11R
TETERBORO      CLEAR     62  49  62 NE5       30.10R
CALDWELL       CLEAR     55  47  74 CALM      30.12R
MORRISTOWN     CLEAR     50  46  87 CALM      30.12R FOG
SOMERVILLE     CLEAR     54  49  83 NW7       30.10
LINDEN         MOCLDY    68  51  53 NE7       30.12R
SUSSEX         CLEAR     54  48  80 CALM      30.14R
ANDOVER          N/A     49  48  97 CALM      30.14R
TRENTON        MOCLDY    57  52  83 CALM      30.10R
MILLVILLE      MOCLDY    55  53  93 W3        30.10R
ATLANTIC CITY  PTCLDY    55  53  93 CALM      30.10R
WRIGHTSTOWN    PTCLDY    57  56  96 W1        30.07S
TOMS RIVER     CLOUDY    55  52  88 CALM      30.10R
BELMAR         PTCLDY    57  50  77 W5        30.09R
$$

PAZ047>061-062-071-190500-
EASTERN PENNSYLVANIA

CITY           SKY/WX    TMP DP  RH WIND       PRES   REMARKS
PHILADELPHIA   PTCLDY    63  55  75 W5        30.11R
ALLENTOWN      CLEAR     55  46  71 N3        30.14R
SCRANTON       CLOUDY    57  47  69 NW9       30.17R
$$

CTZ002-004>006-009-010-012-RIZ004-006-007-MAZ004-011-015-190500-
SOUTHERN NEW ENGLAND
 IN CT

CITY           SKY/WX    TMP DP  RH WIND       PRES   REMARKS
BRADLEY INTL   PTCLDY    56  45  66 N10       30.14R
HARTFORD       MOCLDY    57  48  72 VRB7      30.14R
DANBURY        MOCLDY    58  49  72 N7        30.14R
WTRBRY/OXFORD  MOCLDY    57  46  67 N10       30.14R
BRIDGEPORT     CLEAR     61  50  67 N9        30.11R
MERIDEN        PTCLDY    59  49  69 N8        30.13R
NEW HAVEN      CLEAR     61  50  67 N10       30.11R
CHESTER        FAIR      57  50  77 N6        30.12R
GROTON         CLEAR     57  52  83 N10       30.09R
WILLIMANTIC    CLEAR     54  49  83 NE5       30.13R

 IN RI

CITY           SKY/WX    TMP DP  RH WIND       PRES   REMARKS
PROVIDENCE     MOCLDY    61  47  59 N15       30.12R
BLOCK ISLAND   CLEAR     63  52  67 N12G18    30.08R
WESTERLY       CLEAR     57  50  77 N5        30.10R

 IN MA

CITY           SKY/WX    TMP DP  RH WIND       PRES   REMARKS
BOSTON         MOCLDY    57  41  55 N9        30.15R
WORCESTER      MOCLDY    50  43  77 N7        30.15R
WESTFIELD      CLEAR     54  45  71 N12       30.15R
PROVINCETOWN   CLOUDY    59  46  63 N17G26    30.12R
NANTUCKET      CLOUDY    57  49  74 N3        30.07R
$$

ANZ330-335-338-340-345-350-353-355-190500-
COASTAL MARINE OBSERVATIONS


STATION/POSITION TIME  SKY/WX   TEMP    WIND        PRES    VSBY  WAVE
                                AIR SEA DIR/SP/G                  HT/PER
                 (UTC)          (F)     (DEG/KT/KT) (MB)    (MI)  (FT/S)
NY HARB ENTRANCE 0400            68 70  270/  8/ 10 1018.9          3/11
4S FIRE IS       0400               71                N/A           2/11
23SW MTP         0400                                 N/A           2/11
HUDSON CANYON    0400            69 72  310/  4/  8 1018.6          3/11
EXECUTION ROCKS  0400            65 71   40/  8/ 12   N/A
WESTERN LI SOUND 0400            64      20/ 12/ 16   N/A           0
CENTRAL LI SOUND 0300            65 71   10/ 14/ 16   N/A           1/ 2
EASTERN LI SOUND 0300            63 68   10/ 14/ 16   N/A
ROBBINS REEF     0300            68      20/ 14/ 16 1017.6
$$


>>>>>>>>>>>>>>>>>>>>>>>>>>>> KEY <<<<<<<<<<<<<<<<<<<<<<<<<<<
>                                                          <
>     SKY/WX - SKY CONDITION/PRESENT WEATHER               <
>     TMP    - TEMPERATURE IN FAHRENHEIT                   <
>     DP     - DEWPOINT IN FAHRENHEIT                      <
>     RH     - RELATIVE HUMIDITY IN PERCENT                <
>     WIND   - DIRECTION AND SPEED IN MPH                  <
>     PRES   - MEAN SEA LEVEL PRESSURE IN INCHES OF HG     <
>     WCI    - WIND CHILL INDEX                            <
>     VSB    - VISIBILITY IN MILES                         <
>     HX     - HEAT INDEX                                  <
>     TC     - TEMPERATURE IN CELSIUS                      <
>     VRB    - VARIABLE WIND DIRECTION                     <
>                                                          <
>>>>>>>>>>>>>>>>>>>>>>>>>>>> KEY <<<<<<<<<<<<<<<<<<<<<<<<<<<




USA.gov is the U.S. government's official web portal to all federal, state and local government web resources and services.